Regional Weather Roundup
Issued by NWS

Home | Current Version | Previous Version | Text Only | Print | Product List | Glossary On
Versions: 1 2 3 4 5 6 7 8 9 10 11 12 13 14 15 16 17 18 19 20 21 22 23 24 25 26 27 28 29 30 31 32 33 34 35 36 37 38 39 40 41 42 43 44 45 46 47 48 49 50
000
ASUS44 KJAN 311610
RWRMS

MISSISSIPPI HOURLY WEATHER ROUNDUP
NATIONAL WEATHER SERVICE JACKSON MS
1100 AM CDT TUE MAY 31 2016

NOTE: "FAIR: INDICATES FEW OR NO CLOUDS BELOW 12,000 FEET WITH NO
SIGNIFICANT WEATHER AND/OR OBSTRUCTIONS TO VISIBILITY.

MSZ001>002-007>008-010>013-018>021-025>028-034>036-311700-
NORTHWEST MISSISSIPPI

CITY           SKY/WX    TMP DP  RH WIND       PRES   REMARKS
BATESVILLE     DRIZZLE   71  67  88 CALM      29.98F
CLARKSDALE     SUNNY     75  73  94 E8        29.97S
CLEVELAND      FAIR      78  71  78 E9        29.96S
GREENWOOD      MOSUNNY   82  67  60 MISG      29.96S
GREENVILLE     MOSUNNY   80  70  71 NE7       29.96S
OLIVE BRANCH   PTSUNNY   72  70  94 CALM      30.00R
OXFORD         FAIR      70  66  88 SE5       30.01S
TUNICA         CLOUDY    70  66  88 E6        29.98F
WINONA         FAIR      78  67  69 E3        29.98R
$$

MSZ003>006-009-014>017-022>024-029>033-037>039-311700-
NORTHEAST MISSISSIPPI

CITY           SKY/WX    TMP DP  RH WIND       PRES   REMARKS
COLUMBUS AFB   PTSUNNY   82  67  59 N13       29.97F
CORINTH        FAIR      75  64  69 CALM      29.99R
GOLDN TRIANGLE PTSUNNY   82  64  54 N12       29.97F
STARKVILLE     PTSUNNY   79  63  57 E6        29.97R
TUPELO         LGT RAIN  70  66  87 NE7       29.99F
$$

MSZ040-058-311700-
CENTRAL MISSISSIPPI

CITY           SKY/WX    TMP DP  RH WIND       PRES   REMARKS
JACKSON INTL   CLOUDY    84  67  56 NE6       29.96R
JACKSON HAWKNS CLOUDY    82  68  62 CALM      29.97R
MADISON        FAIR      81  68  65 CALM      29.96S
MERIDIAN KEY   SUNNY     91  67  44 NW8       29.96S HX  94
MERIDIAN NAS   MOSUNNY   87  66  49 NW7       29.97S
VICKSBURG TVR  SUNNY     85  70  60 CALM      29.96R
VICKSBURG VKS  SUNNY     84  72  65 CALM      29.96R
$$

MSZ059>079-311700-
SOUTH MISSISSIPPI

CITY           SKY/WX    TMP DP  RH WIND       PRES   REMARKS
BROOKHAVEN     FAIR     N/A N/A N/A NW3       29.98R
COLUMBIA       FAIR      82  73  74 CALM      30.00S
HATTIESBURG    SUNNY     86  70  58 CALM      29.96R HX  90
MCCOMB         SUNNY     83  67  58 CALM      29.97R
NATCHEZ        MOSUNNY   81  70  69 CALM      29.96S
PINE BELT      SUNNY     86 N/A N/A N7        29.98R
$$

MSZ080>082-311700-
COASTAL MISSISSIPPI

CITY           SKY/WX    TMP DP  RH WIND       PRES   REMARKS
BAY ST LOUIS   MOSUNNY   84  64  51 CALM      29.95F
BILOXI         MOSUNNY   86  71  61 S7        29.95S HX  92
PASCAGOULA     SUNNY     87  70  56 VRB5      29.95F HX  92
GULFPORT       MOSUNNY   86  69  56 CALM      29.95S HX  90
$$



USA.gov is the U.S. government's official web portal to all federal, state and local government web resources and services.